Regional Weather Roundup
Issued by NWS

Home | Current Version | Previous Version | Graphics & Text | Print | Product List | Glossary On
Versions: 1 2 3 4 5 6 7 8 9 10 11 12 13 14 15 16 17 18 19 20 21 22 23 24 25 26 27 28 29 30 31 32 33 34 35 36 37 38 39 40 41 42 43 44 45 46 47 48 49 50
000
ASUS45 KSLC 220210
RWRUT

UTAH REGIONAL WEATHER ROUNDUP
NATIONAL WEATHER SERVICE SALT LAKE CITY UT
700 PM MST SUN DEC 21 2014

UTZ001>011-023>025-220300-

NORTHERN UTAH

CITY           SKY/WX    TMP DP  RH WIND       PRES   REMARKS
BRIGHAM CITY   CLOUDY    45  37  71 N20       29.97R
HILL AFB       CLOUDY    45  41  87 N9        29.97R
LOGAN          CLOUDY    44  36  73 W8        29.94R
OGDEN          CLOUDY    45  40  82 N8        29.96R
PROVO AIRPORT  LGT RAIN  41  39  93 CALM      29.96S
SALT LAKE CITY CLOUDY    44  40  85 CALM      29.97R
VERNAL         CLOUDY    33  29  85 NW5       29.83R WCI  29
WENDOVER       PTCLDY    54  37  54 W25       29.97R
HEBER CITY     MIX PCPN  36  36 100 E6        29.91R WCI  31
WEST JORDAN    CLOUDY    43  43 100 N6        29.97R

$$

UTZ012>022-026-027-220300-

SOUTHERN/CENTRAL UTAH

CITY           SKY/WX    TMP DP  RH WIND       PRES   REMARKS
BLANDING       MOCLDY    32  31  96 NE6       30.04F WCI  26
BRYCE CANYON   PTCLDY    41  31  67 NE6       30.06F
CEDAR CITY     MOCLDY    45  33  63 S5        30.06R
DELTA          CLOUDY    42  38  86 NW5       29.99R
MILFORD        CLOUDY    48  36  63 SW9       30.01R
MOAB/CYNLANDS  CLEAR     36  32  85 NW8       29.91F WCI  30
PRICE          CLOUDY    32  29  88 CALM      29.92S
ST GEORGE      CLOUDY    46  34  61 SE3       30.07S
KANAB          MOCLDY    37  34  87 CALM      30.07F

$$

REGIONAL REPORTS     COLORADO/ARIZONA

CITY           SKY/WX    TMP DP  RH WIND       PRES   REMARKS
CRAIG, CO      CLOUDY    39  31  72 SW23G36   29.74R WCI  28
GRAND JUNCTION CLOUDY    34  33  96 CALM      29.93R
RIFLE          CLOUDY    36  31  82 W14G24    29.85S WCI  27
MONTROSE       CLOUDY    33  31  92 CALM      29.93S
CORTEZ         CLOUDY    37  30  75 NE5       29.99R WCI  33
PAGE, AZ       CLOUDY    42  32  67 W3        30.02S
GRAND CANYON   MOCLDY    32  29  88 CALM      30.13R
KINGMAN        PTCLDY    42  36  79 E5        30.10R
FLAGSTAFF      CLOUDY    43  31  62 VRB6      30.11R

$$

REGIONAL REPORTS    NEVADA/IDAHO/WYOMING

CITY           SKY/WX    TMP DP  RH WIND       PRES   REMARKS
LAS VEGAS, NV  CLOUDY    53  39  59 S9        30.04S
ELY            CLOUDY    48  37  65 N5        30.14R
ELKO           LGT RAIN  45  43  93 SW7       30.09R
POCATELLO, ID  CLOUDY    39  37  92 SW15      29.93R WCI  31
BURLEY         CLOUDY    38  35  89 W22       29.98R WCI  27
EVANSTON, WY   LGT RAIN  36  34  92 W10       29.91R WCI  28
ROCK SPRINGS   MOCLDY    36  29  75 W38G59    29.73R WCI  22
KEMMERER       MIX PCPN  34  32  93 W31G44    29.84R WCI  20

$$



USA.gov is the U.S. government's official web portal to all federal, state and local government web resources and services.